Weather History for Rockingham, NC

Change the Weather History Date:

Sunday, May 4, 2014

  Actual Average (KHFF) Record (KHFF)
Temperature  
Mean Temperature 67 °F -  
Max Temperature 84 °F 77 °F 88 °F (2012)
Min Temperature 50 °F 57 °F 44 °F (2004)
Cooling Degree Days 2    
Growing Degree Days 17 (Base 50)    
Moisture  
Dew Point 48 °F    
Average Humidity 50    
Maximum Humidity 87    
Minimum Humidity 27    
Precipitation  
Precipitation 0.00 in - - ()
Sea Level Pressure  
Sea Level Pressure 29.95 in    
Wind  
Wind Speed 5 mph (West)    
Max Wind Speed 16 mph    
Max Gust Speed 22 mph    
Visibility 10 miles    
Events      
Averages and records for this station are not official NWS values.
T = Trace of Precipitation, MM = Missing Value Source: NWS Daily Summary

Daily Weather History Graph

Daily Weather History Graph

Search for Another Location

Airport:

Trip Planner

Search our weather history database for the weather conditions in past years. The results will help you decide how hot, cold, wet, or windy it might be!

Date:

Astronomy

May. 04, 2014 Rise Set
Actual Time 6:25 AM EDT 8:06 PM EDT
Civil Twilight 5:58 AM EDT 8:34 PM EDT
Nautical Twilight 5:25 AM EDT 9:06 PM EDT
Astronomical Twilight 4:50 AM EDT 9:41 PM EDT
Moon 10:48 AM EDT (5/4) 12:09 AM EDT (5/4)
Length of Visible Light 14h 35m
Length of Day
13h 41m
Waxing Crescent, 27% of the Moon is Illuminated
May 4
Waxing Crescent
May 6
First Quarter
May 14
Full
May 21
Last Quarter
May 28
New

Hourly Weather History & Observations

Time (EDT) Temp. Dew Point Humidity Pressure Visibility Wind Dir Wind Speed Gust Speed Precip Events Conditions
12:15 AM 61.7 °F 45.0 °F 54% 29.96 in 10.0 mi SW 4.6 mph - N/A   Unknown
12:35 AM 58.3 °F 45.9 °F 63% 29.96 in 10.0 mi SW 4.6 mph - N/A   Unknown
12:55 AM 58.1 °F 46.2 °F 65% 29.96 in 10.0 mi SW 4.6 mph - N/A   Unknown
1:15 AM 58.1 °F 45.9 °F 64% 29.97 in 10.0 mi SW 3.5 mph - N/A   Unknown
1:35 AM 59.2 °F 45.5 °F 60% 29.97 in 10.0 mi SW 4.6 mph - N/A   Unknown
1:55 AM 57.2 °F 45.9 °F 66% 29.96 in 10.0 mi Calm Calm - N/A   Unknown
2:15 AM 57.0 °F 46.0 °F 67% 29.96 in 10.0 mi Calm Calm - N/A   Unknown
2:35 AM 56.8 °F 46.0 °F 67% 29.96 in 10.0 mi Calm Calm - N/A   Unknown
2:55 AM 54.7 °F 46.4 °F 74% 29.96 in 10.0 mi Calm Calm - N/A   Unknown
3:15 AM 53.8 °F 46.0 °F 75% 29.96 in 10.0 mi Calm Calm - N/A   Unknown
3:35 AM 55.4 °F 46.2 °F 71% 29.97 in 10.0 mi Calm Calm - N/A   Unknown
3:55 AM 54.3 °F 46.8 °F 76% 29.97 in 10.0 mi WNW 3.5 mph - N/A   Unknown
4:15 AM 51.8 °F 45.9 °F 80% 29.97 in 10.0 mi Calm Calm - N/A   Unknown
4:35 AM 51.8 °F 46.0 °F 81% 29.97 in 10.0 mi Calm Calm - N/A   Unknown
4:55 AM 50.5 °F 45.9 °F 84% 29.97 in 10.0 mi Calm Calm - N/A   Unknown
5:15 AM 51.6 °F 46.8 °F 83% 29.98 in 10.0 mi Calm Calm - N/A   Unknown
5:35 AM 50.5 °F 46.8 °F 87% 29.98 in 10.0 mi Calm Calm - N/A   Unknown
5:55 AM 51.8 °F 46.9 °F 83% 29.98 in 10.0 mi North 4.6 mph - N/A   Unknown
6:15 AM 52.2 °F 46.9 °F 82% 29.99 in 10.0 mi NNW 4.6 mph - N/A   Unknown
6:35 AM 53.4 °F 47.1 °F 79% 30.00 in 10.0 mi NNW 3.5 mph - N/A   Unknown
6:55 AM 55.0 °F 46.8 °F 74% 30.00 in 10.0 mi NNW 3.5 mph - N/A   Unknown
7:15 AM 52.5 °F 47.1 °F 82% 30.01 in 10.0 mi Calm Calm - N/A   Unknown
7:35 AM 55.9 °F 47.7 °F 74% 30.01 in 10.0 mi North 3.5 mph - N/A   Unknown
7:55 AM 57.4 °F 48.6 °F 72% 30.02 in 10.0 mi Calm Calm - N/A   Unknown
8:15 AM 60.4 °F 49.5 °F 67% 30.02 in 10.0 mi Calm Calm - N/A   Unknown
8:35 AM 62.1 °F 49.5 °F 63% 30.02 in 10.0 mi WNW 3.5 mph - N/A   Unknown
8:55 AM 64.0 °F 51.1 °F 63% 30.03 in 10.0 mi NNW 3.5 mph - N/A   Unknown
9:15 AM 66.7 °F 50.5 °F 56% 30.03 in 10.0 mi WNW 4.6 mph - N/A   Unknown
9:35 AM 68.4 °F 50.9 °F 54% 30.03 in 10.0 mi West 5.8 mph - N/A   Unknown
9:55 AM 69.8 °F 48.9 °F 47% 30.03 in 10.0 mi WNW 5.8 mph - N/A   Unknown
10:15 AM 72.7 °F 47.3 °F 40% 30.03 in 10.0 mi NW 6.9 mph - N/A   Unknown
10:35 AM 74.1 °F 45.9 °F 36% 30.03 in 10.0 mi WNW 9.2 mph - N/A   Unknown
10:55 AM 74.5 °F 46.4 °F 37% 30.03 in 10.0 mi West 5.8 mph - N/A   Unknown
11:15 AM 76.5 °F 44.4 °F 32% 30.03 in 10.0 mi NW 10.4 mph - N/A   Unknown
11:35 AM 76.6 °F 43.7 °F 31% 30.02 in 10.0 mi NW 6.9 mph - N/A   Unknown
11:55 AM 76.8 °F 44.1 °F 31% 30.01 in 10.0 mi WNW 6.9 mph - N/A   Unknown
12:35 PM 79.2 °F 45.5 °F 30% 30.00 in 10.0 mi WSW 9.2 mph 19.6 mph N/A   Unknown
12:55 PM 79.3 °F 45.7 °F 30% 29.99 in 10.0 mi West 11.5 mph - N/A   Unknown
1:15 PM 80.2 °F 45.5 °F 29% 29.98 in 10.0 mi WNW 9.2 mph 17.3 mph N/A   Unknown
1:35 PM 81.0 °F 46.4 °F 30% 29.97 in 10.0 mi WNW 10.4 mph - N/A   Unknown
1:55 PM 81.5 °F 46.2 °F 29% 29.96 in 10.0 mi WSW 9.2 mph 18.4 mph N/A   Unknown
2:15 PM 82.8 °F 46.9 °F 28% 29.95 in 10.0 mi WSW 12.7 mph 17.3 mph N/A   Unknown
2:35 PM 82.6 °F 46.6 °F 28% 29.94 in 10.0 mi West 9.2 mph 20.7 mph N/A   Unknown
2:55 PM 82.9 °F 46.4 °F 28% 29.93 in 10.0 mi WSW 13.8 mph 18.4 mph N/A   Unknown
3:15 PM 83.7 °F 46.4 °F 27% 29.92 in 10.0 mi WNW 12.7 mph 20.7 mph N/A   Unknown
3:35 PM 83.8 °F 46.2 °F 27% 29.92 in 10.0 mi WSW 16.1 mph 20.7 mph N/A   Unknown
3:55 PM 84.6 °F 46.6 °F 27% 29.91 in 10.0 mi WSW 9.2 mph 19.6 mph N/A   Unknown
4:15 PM 84.7 °F 46.9 °F 27% 29.90 in 10.0 mi WSW 15.0 mph 19.6 mph N/A   Unknown
4:35 PM 84.6 °F 46.9 °F 27% 29.90 in 10.0 mi West 12.7 mph 20.7 mph N/A   Unknown
4:55 PM 84.6 °F 47.3 °F 27% 29.89 in 10.0 mi WSW 11.5 mph 21.9 mph N/A   Unknown
5:15 PM 84.7 °F 47.5 °F 27% 29.89 in 10.0 mi WSW 13.8 mph 18.4 mph N/A   Unknown
5:35 PM 84.7 °F 48.6 °F 28% 29.88 in 10.0 mi WSW 9.2 mph - N/A   Unknown
5:55 PM 84.2 °F 47.5 °F 28% 29.88 in 10.0 mi WSW 13.8 mph 18.4 mph N/A   Unknown
6:15 PM 84.2 °F 48.0 °F 28% 29.87 in 10.0 mi WSW 9.2 mph - N/A   Unknown
6:35 PM 83.7 °F 47.7 °F 28% 29.86 in 10.0 mi WSW 11.5 mph 17.3 mph N/A   Unknown
6:55 PM 83.3 °F 48.2 °F 29% 29.86 in 10.0 mi SW 8.1 mph - N/A   Unknown
7:15 PM 81.9 °F 49.5 °F 32% 29.87 in 10.0 mi WSW 6.9 mph - N/A   Unknown
7:35 PM 80.4 °F 49.1 °F 33% 29.87 in 10.0 mi SW 8.1 mph - N/A   Unknown
7:55 PM 78.8 °F 49.1 °F 35% 29.87 in 10.0 mi SW 8.1 mph - N/A   Unknown
8:15 PM 76.5 °F 50.0 °F 39% 29.88 in 10.0 mi SW 5.8 mph - N/A   Unknown
8:35 PM 75.2 °F 50.2 °F 41% 29.89 in 10.0 mi SW 4.6 mph - N/A   Unknown
8:55 PM 73.8 °F 50.9 °F 45% 29.89 in 10.0 mi SW 6.9 mph - N/A   Unknown
9:15 PM 74.3 °F 50.4 °F 43% 29.90 in 10.0 mi SSW 6.9 mph - N/A   Unknown
9:35 PM 72.7 °F 50.9 °F 46% 29.90 in 10.0 mi SSW 5.8 mph - N/A   Unknown
9:55 PM 71.2 °F 51.3 °F 49% 29.91 in 10.0 mi SW 4.6 mph - N/A   Unknown
10:15 PM 72.0 °F 50.9 °F 47% 29.92 in 10.0 mi SW 5.8 mph - N/A   Unknown
10:35 PM 71.8 °F 50.9 °F 48% 29.92 in 10.0 mi SW 5.8 mph - N/A   Unknown
10:55 PM 70.3 °F 51.6 °F 51% 29.92 in 10.0 mi SW 5.8 mph - N/A   Unknown
11:15 PM 69.8 °F 51.8 °F 53% 29.91 in 10.0 mi SW 6.9 mph - N/A   Unknown
11:35 PM 70.0 °F 51.6 °F 52% 29.91 in 10.0 mi SW 6.9 mph - N/A   Unknown
11:55 PM 69.8 °F 51.8 °F 53% 29.92 in 10.0 mi SW 6.9 mph - N/A   Unknown